| time (UTC) | temp F | wind direction | speed MPH | gust MPH | rain 1hr in | rain 24hr in | rain mn in | humidity % | barometer mb |
| 20260505000010 | 77 | 292 | 0.0 | 0.0 | 0.00 | 0.00 | 0.00 | 97 | 1003.4 |
| 20260504235010 | 77 | 328 | 0.0 | 0.0 | 0.00 | 0.00 | 0.00 | 96 | 1003.3 |
| 20260504234510 | 77 | 315 | 0.0 | 0.0 | 0.00 | 0.00 | 0.00 | 96 | 1003.3 |
| 20260504234010 | 77 | 315 | 0.0 | 0.0 | 0.00 | 0.00 | 0.00 | 96 | 1003.2 |
| 20260504233510 | 78 | 315 | 0.0 | 0.0 | 0.00 | 0.00 | 0.00 | 96 | 1003.2 |
| 20260504233010 | 78 | 315 | 0.0 | 0.0 | 0.00 | 0.00 | 0.00 | 96 | 1003.0 |
| 20260504232510 | 77 | 315 | 0.0 | 0.0 | 0.00 | 0.00 | 0.00 | 96 | 1003.0 |
| 20260504232010 | 78 | 315 | 0.0 | 0.0 | 0.00 | 0.00 | 0.00 | 96 | 1002.8 |
| 20260504231510 | 78 | 315 | 0.0 | 0.0 | 0.00 | 0.00 | 0.00 | 96 | 1002.8 |
| 20260504231010 | 77 | 328 | 0.0 | 0.0 | 0.00 | 0.00 | 0.00 | 96 | 1002.8 |
| 20260504230511 | 78 | 315 | 0.0 | 0.0 | 0.00 | 0.00 | 0.00 | 96 | 1002.7 |
| 20260504230010 | 78 | 315 | 0.0 | 0.0 | 0.00 | 0.00 | 0.00 | 96 | 1002.7 |
| 20260504225510 | 78 | 315 | 0.0 | 0.0 | 0.00 | 0.00 | 0.00 | 95 | 1002.6 |
| 20260504224510 | 78 | 315 | 0.0 | 0.0 | 0.00 | 0.00 | 0.00 | 95 | 1002.6 |
| 20260504223510 | 78 | 338 | 0.0 | 0.0 | 0.00 | 0.00 | 0.00 | 94 | 1002.4 |
| 20260504223010 | 78 | 338 | 0.0 | 0.0 | 0.00 | 0.00 | 0.00 | 94 | 1002.2 |
| 20260504222510 | 78 | 338 | 0.0 | 0.0 | 0.00 | 0.00 | 0.00 | 94 | 1002.2 |
| 20260504222009 | 78 | 338 | 0.0 | 0.0 | 0.00 | 0.00 | 0.00 | 94 | 1002.2 |
| 20260504221510 | 78 | 3 | 2.0 | 3.0 | 0.00 | 0.00 | 0.00 | 94 | 1002.1 |
| 20260504221010 | 78 | 297 | 0.0 | 2.0 | 0.00 | 0.00 | 0.00 | 94 | 1002.1 |
| 20260504220510 | 78 | 292 | 1.0 | 2.0 | 0.00 | 0.00 | 0.00 | 94 | 1002.0 |
| 20260504215510 | 78 | 292 | 0.0 | 2.0 | 0.00 | 0.00 | 0.00 | 94 | 1001.8 |
| 20260504215010 | 79 | 321 | 0.0 | 2.0 | 0.00 | 0.00 | 0.00 | 94 | 1001.8 |
| 20260504214510 | 78 | 315 | 0.0 | 2.0 | 0.00 | 0.00 | 0.00 | 94 | 1001.8 |
| 20260504214010 | 78 | 328 | 2.0 | 2.0 | 0.00 | 0.00 | 0.00 | 94 | 1002.0 |
| 20260504213511 | 78 | 292 | 0.0 | 0.0 | 0.00 | 0.00 | 0.00 | 93 | 1002.0 |
| 20260504212510 | 79 | 292 | 0.0 | 0.0 | 0.00 | 0.00 | 0.00 | 93 | 1002.0 |
| 20260504211510 | 79 | 292 | 1.0 | 2.0 | 0.00 | 0.00 | 0.00 | 93 | 1002.0 |
| 20260504211010 | 79 | 338 | 1.0 | 2.0 | 0.00 | 0.00 | 0.00 | 92 | 1002.0 |
| 20260504210510 | 79 | 303 | 0.0 | 2.0 | 0.00 | 0.00 | 0.00 | 92 | 1002.0 |
| 20260504210010 | 79 | 302 | 0.0 | 0.0 | 0.00 | 0.00 | 0.00 | 91 | 1002.0 |
| 20260504205510 | 79 | 315 | 1.0 | 2.0 | 0.00 | 0.00 | 0.00 | 91 | 1002.1 |
| 20260504205010 | 79 | 315 | 0.0 | 0.0 | 0.00 | 0.00 | 0.00 | 91 | 1002.1 |
| 20260504204510 | 79 | 315 | 0.0 | 0.0 | 0.00 | 0.00 | 0.00 | 91 | 1002.1 |
| 20260504204010 | 79 | 315 | 1.0 | 2.0 | 0.00 | 0.00 | 0.00 | 91 | 1002.1 |
| 20260504203510 | 79 | 335 | 0.0 | 0.0 | 0.00 | 0.00 | 0.00 | 91 | 1002.1 |
| 20260504201510 | 79 | 315 | 0.0 | 0.0 | 0.00 | 0.00 | 0.00 | 90 | 1002.3 |
| 20260504200510 | 79 | 315 | 1.0 | 2.0 | 0.00 | 0.00 | 0.00 | 89 | 1002.4 |
| 20260504200010 | 80 | 315 | 2.0 | 2.0 | 0.00 | 0.00 | 0.00 | 89 | 1002.4 |
| 20260504195510 | 80 | 302 | 0.0 | 1.0 | 0.00 | 0.00 | 0.00 | 88 | 1002.7 |
| 20260504195010 | 80 | 292 | 1.0 | 2.0 | 0.00 | 0.00 | 0.00 | 88 | 1002.7 |
| 20260504194510 | 80 | 315 | 2.0 | 2.0 | 0.00 | 0.00 | 0.00 | 88 | 1002.7 |
| 20260504194010 | 80 | 292 | 1.0 | 2.0 | 0.00 | 0.00 | 0.00 | 88 | 1002.9 |
| 20260504192010 | 80 | 323 | 2.0 | 3.0 | 0.00 | 0.00 | 0.00 | 86 | 1003.2 |
| 20260504191510 | 80 | 315 | 2.0 | 2.0 | 0.00 | 0.00 | 0.00 | 86 | 1003.3 |
| 20260504191010 | 80 | 292 | 0.0 | 2.0 | 0.00 | 0.00 | 0.00 | 85 | 1003.3 |
| 20260504190510 | 80 | 327 | 2.0 | 3.0 | 0.00 | 0.00 | 0.00 | 85 | 1003.6 |
| 20260504190010 | 80 | 304 | 2.0 | 2.0 | 0.00 | 0.00 | 0.00 | 85 | 1003.6 |
| 20260504185510 | 80 | 292 | 2.0 | 3.0 | 0.00 | 0.00 | 0.00 | 85 | 1003.8 |
| 20260504185010 | 80 | 324 | 0.0 | 2.0 | 0.00 | 0.00 | 0.00 | 84 | 1003.8 |
| 20260504184510 | 80 | 328 | 1.0 | 2.0 | 0.00 | 0.00 | 0.00 | 84 | 1003.8 |
| 20260504184009 | 80 | 329 | 2.0 | 5.0 | 0.00 | 0.00 | 0.00 | 84 | 1003.9 |
| 20260504183510 | 80 | 338 | 2.0 | 3.0 | 0.00 | 0.00 | 0.00 | 84 | 1003.9 |
| 20260504183009 | 80 | 4 | 2.0 | 3.0 | 0.00 | 0.00 | 0.00 | 84 | 1004.2 |
| 20260504182509 | 80 | 338 | 2.0 | 3.0 | 0.00 | 0.00 | 0.00 | 84 | 1004.2 |
| 20260504182010 | 80 | 347 | 3.0 | 5.0 | 0.00 | 0.00 | 0.00 | 84 | 1004.2 |
| 20260504181509 | 80 | 337 | 1.0 | 3.0 | 0.00 | 0.00 | 0.00 | 84 | 1004.2 |
| 20260504181009 | 80 | 315 | 2.0 | 3.0 | 0.00 | 0.00 | 0.00 | 84 | 1004.2 |
| 20260504180010 | 81 | 333 | 2.0 | 5.0 | 0.00 | 0.00 | 0.00 | 84 | 1004.3 |
| 20260504175510 | 81 | 299 | 2.0 | 2.0 | 0.00 | 0.00 | 0.00 | 84 | 1004.5 |
| 20260504175010 | 81 | 294 | 2.0 | 5.0 | 0.00 | 0.00 | 0.00 | 84 | 1004.5 |
| 20260504174509 | 81 | 325 | 2.0 | 3.0 | 0.00 | 0.00 | 0.00 | 84 | 1004.5 |
| 20260504173509 | 81 | 338 | 2.0 | 3.0 | 0.00 | 0.00 | 0.00 | 84 | 1004.7 |
| 20260504173010 | 81 | 356 | 2.0 | 3.0 | 0.00 | 0.00 | 0.00 | 84 | 1004.7 |
| 20260504172509 | 81 | 305 | 3.0 | 5.0 | 0.00 | 0.00 | 0.00 | 84 | 1004.7 |
| 20260504172009 | 81 | 0 | 3.0 | 5.0 | 0.00 | 0.00 | 0.00 | 84 | 1004.7 |
| 20260504171509 | 81 | 298 | 3.0 | 5.0 | 0.00 | 0.00 | 0.00 | 84 | 1004.8 |
| 20260504170510 | 81 | 322 | 2.0 | 6.0 | 0.00 | 0.00 | 0.00 | 85 | 1005.0 |
| 20260504151009 | 84 | 306 | 3.0 | 3.0 | 0.00 | 0.00 | 0.00 | 89 | 1004.6 |
| 20260504150509 | 84 | 270 | 2.0 | 2.0 | 0.00 | 0.00 | 0.00 | 88 | 1004.4 |
| 20260504141009 | 85 | 287 | 3.0 | 5.0 | 0.00 | 0.00 | 0.00 | 85 | 1003.7 |
| 20260504110510 | 93 | 224 | 3.0 | 6.0 | 0.00 | 0.00 | 0.00 | 70 | 1000.9 |
| 20260504100509 | 94 | 190 | 4.0 | 6.0 | 0.00 | 0.00 | 0.00 | 66 | 1001.5 |
| 20260504082008 | 93 | 277 | 6.0 | 10.0 | 0.00 | 0.00 | 0.00 | 69 | 1002.5 |
| 20260504081509 | 93 | 205 | 5.0 | 6.0 | 0.00 | 0.00 | 0.00 | 69 | 1002.6 |
| 20260504050509 | 89 | 270 | 5.0 | 7.0 | 0.00 | 0.00 | 0.00 | 75 | 1004.1 |
| 20260504050009 | 89 | 270 | 3.0 | 10.0 | 0.00 | 0.00 | 0.00 | 76 | 1004.1 |
| 20260504044509 | 88 | 284 | 3.0 | 7.0 | 0.00 | 0.00 | 0.00 | 78 | 1004.2 |
| 20260504044008 | 87 | 320 | 5.0 | 9.0 | 0.00 | 0.00 | 0.00 | 79 | 1004.5 |
| 20260504043509 | 87 | 296 | 4.0 | 8.0 | 0.00 | 0.00 | 0.00 | 79 | 1004.5 |
| 20260504043009 | 87 | 275 | 5.0 | 9.0 | 0.00 | 0.00 | 0.00 | 79 | 1004.6 |
| 20260504042008 | 87 | 298 | 3.0 | 9.0 | 0.00 | 0.00 | 0.00 | 80 | 1004.6 |
| 20260504041508 | 86 | 276 | 5.0 | 9.0 | 0.00 | 0.00 | 0.00 | 80 | 1004.6 |
| 20260504041009 | 87 | 270 | 4.0 | 7.0 | 0.00 | 0.00 | 0.00 | 80 | 1004.6 |
| 20260504040508 | 86 | 315 | 4.0 | 6.0 | 0.00 | 0.00 | 0.00 | 81 | 1004.6 |
| 20260504040009 | 86 | 285 | 3.0 | 6.0 | 0.00 | 0.00 | 0.00 | 82 | 1004.6 |
| 20260504035508 | 86 | 295 | 6.0 | 8.0 | 0.00 | 0.00 | 0.00 | 82 | 1004.6 |
| 20260504035008 | 86 | 270 | 3.0 | 7.0 | 0.00 | 0.00 | 0.00 | 82 | 1004.6 |
| 20260504034008 | 86 | 280 | 3.0 | 6.0 | 0.00 | 0.00 | 0.00 | 83 | 1004.6 |
| 20260504033508 | 86 | 303 | 2.0 | 6.0 | 0.00 | 0.00 | 0.00 | 83 | 1004.6 |
| 20260504033008 | 85 | 270 | 3.0 | 6.0 | 0.00 | 0.00 | 0.00 | 84 | 1004.5 |
| 20260504032508 | 85 | 292 | 3.0 | 5.0 | 0.00 | 0.00 | 0.00 | 84 | 1004.5 |
| 20260504032007 | 85 | 296 | 2.0 | 3.0 | 0.00 | 0.00 | 0.00 | 84 | 1004.5 |
| 20260504031508 | 84 | 292 | 4.0 | 6.0 | 0.00 | 0.00 | 0.00 | 84 | 1004.3 |
| 20260504030508 | 84 | 320 | 5.0 | 6.0 | 0.00 | 0.00 | 0.00 | 84 | 1004.2 |
| 20260504030008 | 85 | 271 | 4.0 | 6.0 | 0.00 | 0.00 | 0.00 | 84 | 1004.2 |
| 20260504025508 | 85 | 270 | 3.0 | 7.0 | 0.00 | 0.00 | 0.00 | 84 | 1004.1 |
| 20260504024008 | 84 | 333 | 2.0 | 6.0 | 0.00 | 0.00 | 0.00 | 84 | 1004.0 |
| 20260504023508 | 84 | 301 | 3.0 | 6.0 | 0.00 | 0.00 | 0.00 | 84 | 1004.0 |
| 20260504023008 | 84 | 292 | 2.0 | 6.0 | 0.00 | 0.00 | 0.00 | 84 | 1004.0 |
| 20260504022507 | 84 | 302 | 3.0 | 6.0 | 0.00 | 0.00 | 0.00 | 84 | 1004.0 |
| 20260504022008 | 84 | 272 | 5.0 | 6.0 | 0.00 | 0.00 | 0.00 | 84 | 1004.0 |
| 20260504021508 | 84 | 285 | 4.0 | 6.0 | 0.00 | 0.00 | 0.00 | 86 | 1003.9 |
| 20260504021009 | 83 | 302 | 3.0 | 7.0 | 0.00 | 0.00 | 0.00 | 86 | 1003.9 |
| 20260504020508 | 83 | 289 | 5.0 | 6.0 | 0.00 | 0.00 | 0.00 | 88 | 1003.8 |
| 20260504020008 | 82 | 309 | 3.0 | 6.0 | 0.00 | 0.00 | 0.00 | 89 | 1003.8 |
| 20260504013508 | 81 | 279 | 2.0 | 5.0 | 0.00 | 0.00 | 0.00 | 92 | 1003.5 |
| 20260504013007 | 81 | 315 | 3.0 | 5.0 | 0.00 | 0.00 | 0.00 | 93 | 1003.5 |
| 20260504012508 | 80 | 343 | 2.0 | 5.0 | 0.00 | 0.00 | 0.00 | 94 | 1003.5 |
| 20260504012007 | 80 | 327 | 2.0 | 3.0 | 0.00 | 0.00 | 0.00 | 95 | 1003.4 |
| 20260504011008 | 80 | 270 | 2.0 | 5.0 | 0.00 | 0.00 | 0.00 | 96 | 1003.4 |
| 20260504010508 | 80 | 297 | 1.0 | 2.0 | 0.00 | 0.00 | 0.00 | 96 | 1003.0 |
| 20260504010008 | 80 | 292 | 1.0 | 2.0 | 0.00 | 0.00 | 0.00 | 96 | 1003.0 |
| 20260504005508 | 79 | 292 | 3.0 | 5.0 | 0.00 | 0.00 | 0.00 | 96 | 1002.5 |
| 20260504005008 | 79 | 289 | 2.0 | 5.0 | 0.00 | 0.00 | 0.00 | 96 | 1002.5 |
| 20260504004508 | 79 | 272 | 2.0 | 5.0 | 0.00 | 0.00 | 0.00 | 96 | 1002.5 |
| 20260504003507 | 80 | 281 | 3.0 | 5.0 | 0.00 | 0.00 | 0.00 | 96 | 1002.5 |
| 20260504003008 | 80 | 309 | 3.0 | 6.0 | 0.00 | 0.00 | 0.00 | 96 | 1002.4 |
| 20260504002508 | 80 | 281 | 3.0 | 6.0 | 0.00 | 0.00 | 0.00 | 96 | 1002.4 |
| 20260504001508 | 80 | 288 | 2.0 | 5.0 | 0.00 | 0.00 | 0.00 | 96 | 1002.4 |
| 20260504001008 | 80 | 287 | 3.0 | 6.0 | 0.00 | 0.00 | 0.00 | 96 | 1002.4 |
| 20260504000508 | 80 | 286 | 3.0 | 5.0 | 0.00 | 0.00 | 0.00 | 95 | 1002.4 |